Content
SEND FEEDBACK

Daily
Averages
Monthly
Summary
United States of America

CORTEZ, COLORADO


Home > North America > United States > Colorado
Elevation: 5911 feet     Latitude: 37 18N     Longitude: 108 37W

WEATHER
 
SELECT A DAY
Number of Records: 175,703;   Date Range: 1/1/95 - 7/29/14
 
SHARE

PRINT THIS DATA

[ ← Previous Day ]
WEATHER ALMANAC - FEBRUARY 5, 2013
[ Next Day → ]
[ °C ]   °F
Weather ElementAverageHighLow
Temperature33.7 °F48.9 °F (3:53 pm)23 °F (6:53 am)
Dewpoint22.2 °F27 °F (12:53 pm)17.1 °F (6:53 am)
Humidity65.6 %88 % (2:53 am)36 % (3:53 pm)
Barometer30.09 in30.19 in (7:53 am)30.01 in (3:53 pm)
Wind Speed3.9 mph10.4 mph (5:53 am)
Weather ElementAverage
Visibility10 mi
Wind DirectionE (86.2 °)

Weather ElementTotal
Precipitation---
Heating Degree Days29.1 (Base 65)
Averaged from 21 records on February 5, 2013
WEATHER CONDITIONS BREAKOUT
WIND DIRECTION BREAKOUT
WEATHER BY HOUR - FEBRUARY 5, 2013
[ °C ]   °F
Local TimeTemperatureDewpointHumidityBarometerVisibilityWind DirectionWind SpeedGust SpeedPrecipitationEventsConditions
1:53 AM26.1 °F21.9 °F84 %30.09 in10.0 miENE (70°)5.8 mphClear
2:53 AM24.1 °F21.0 °F88 %30.11 in10.0 miSE (130°)5.8 mphClear
3:53 AM25.0 °F19.9 °F81 %30.10 in10.0 miNE (50°)6.9 mphClear
4:53 AM24.1 °F18.0 °F77 %30.12 in10.0 miNE (50°)9.2 mphClear
5:53 AM25.0 °F18.0 °F75 %30.13 in10.0 miENE (60°)10.4 mphClear
6:53 AM23.0 °F17.1 °F78 %30.16 in10.0 miNorth (360°)3.5 mphClear
7:53 AM24.1 °F19.0 °F81 %30.19 in10.0 miCalmClear
8:53 AM30.0 °F19.0 °F64 %30.18 in10.0 miENE (70°)3.5 mphClear
9:53 AM34.0 °F21.0 °F59 %30.15 in10.0 miCalmClear
10:53 AM37.9 °F18.0 °F45 %30.13 in10.0 miSW (230°)3.5 mphClear
11:53 AM42.1 °F21.9 °F45 %30.10 in10.0 miSW (230°)6.9 mphClear
12:53 PM43.0 °F27.0 °F53 %30.07 in10.0 miSSW (210°)9.2 mphClear
1:53 PM44.1 °F25.0 °F47 %30.05 in10.0 miCalmClear
2:53 PM46.0 °F24.1 °F42 %30.03 in10.0 miSSE (150°)3.5 mphClear
3:53 PM48.9 °F23.0 °F36 %30.01 in10.0 miCalmClear
4:53 PM48.0 °F24.1 °F39 %30.01 in10.0 miCalmClear
5:53 PM39.0 °F27.0 °F62 %30.03 in10.0 miCalmClear
6:53 PM35.1 °F27.0 °F72 %30.06 in10.0 miENE (60°)3.5 mphClear
7:53 PM32.0 °F26.1 °F79 %30.08 in10.0 miENE (70°)4.6 mphClear
9:53 PM28.9 °F25.0 °F85 %30.06 in10.0 miENE (70°)4.6 mphClear
10:53 PM28.0 °F24.1 °F85 %30.04 in10.0 miCalmClear
Hourly data recorded from KCEZ, located miles away from Cortez, Colorado







STORIES FROM OUR PARTNERS